Regional Weather Roundup
Issued by NWS

Home | Current Version | Previous Version | Graphics & Text | Print | Product List | Glossary On
Versions: 1 2 3 4 5 6 7 8 9 10 11 12 13 14 15 16 17 18 19 20 21 22 23 24 25 26 27 28 29 30 31 32 33 34 35 36 37 38 39 40 41 42 43 44 45 46 47 48 49 50
000
ASUS43 KLOT 201203
RWRIL

ILLINOIS REGIONAL WEATHER ROUNDUP
NATIONAL WEATHER SERVICE CHICAGO/ROMEOVILLE IL
700 AM CDT SUN AUG 20 2017

NOTE: "FAIR" INDICATES FEW OR NO CLOUDS BELOW 12,000 FEET WITH NO
SIGNIFICANT WEATHER AND/OR OBSTRUCTIONS TO VISIBILITY.

* THESE STATIONS ARE NOT UNDER NWS QUALITY CONTROL. THEY ALSO MAY NOT
  REPORT WEATHER SUCH AS PRECIPITATION OR FOG.

ILZ001-002-007-009-015-016-024-201300-
NORTHWEST ILLINOIS

CITY           SKY/WX    TMP DP  RH WIND       PRES   REMARKS
MOLINE         CLOUDY    64  60  87 E3        29.98R
6HR MIN TEMP:  62; 6HR MAX TEMP:  66;

STERLING*      PTCLDY    61  60  97 E3        30.00R
SAVANNA*       MOCLDY    62  60  93 CALM      29.99S
$$

ILZ003-004-008-010-011-017-018-201300-
NORTH CENTRAL ILLINOIS

CITY           SKY/WX    TMP DP  RH WIND       PRES   REMARKS
ROCKFORD       CLOUDY    63  58  83 CALM      30.02S
6HR MIN TEMP:  60; 6HR MAX TEMP:  64;

FREEPORT*      MOCLDY    58  57  99 E3        30.02S
ROCHELLE*      PTCLDY    61  59  95 CALM      30.02R FOG
$$

ILZ005-006-012>014-019>023-201300-
NORTHEAST ILLINOIS

CITY           SKY/WX    TMP DP  RH WIND       PRES   REMARKS
CHICAGO-OHARE  MOCLDY    65  58  78 S3        30.03R
6HR MIN TEMP:  63; 6HR MAX TEMP:  69;

CHICAGO-MIDWAY MOCLDY    68  60  75 SE6       30.03S
6HR MIN TEMP:  67; 6HR MAX TEMP:  72;

AURORA         CLOUDY    61  59  93 E3        30.03S FOG
6HR MIN TEMP:  56; 6HR MAX TEMP:  63;

LANSING*       CLEAR     62  57  86 CALM      30.04S
JOLIET*        PTCLDY    66  63  91 CALM      30.03R
WAUKEGAN       PTCLDY    63  60  90 CALM      30.03R FOG
6HR MIN TEMP:  59; 6HR MAX TEMP:  63;

DUPAGE AIRPORT CLEAR     62  59  90 CALM      30.03R
6HR MIN TEMP:  59; 6HR MAX TEMP:  63;

KANKAKEE*      CLEAR     60  60  97 CALM      30.04S
WHEELING       CLEAR     63  60  90 CALM      30.04S
6HR MIN TEMP:  61; 6HR MAX TEMP:  65;

MORRIS*        PTCLDY    61  59  93 CALM      30.02R
NORTHERLY ISL    N/A     69  59  70 SE3         N/A
$$

LMZ740>746-201300-
SOUTHERN LAKE MICHIGAN

STATION/POSITION SKY/WX   TEMP    WIND        PRES    VSBY  WAVE
                          AIR SEA DIR/SP/G                  HT/PER
                          (F)     (DEG/KT/KT) (MB)    (MI)  (FT/S)
SOUTHERN BUOY              72 71  180/  8/ 10 1016.6          1
WILMETTE HARBOR            72 73  180/  4/  6   N/A           1/ 2
HARRISON CRIB              72     190/ 10/ 11   N/A
CALUMET HARBOR             67     170/  4/  6 1016.5R
BURNS HARBOR               70     170/  6/ 12 1017.6R
MICHIGAN CITY              65     130/  9/ 10   N/A
MICHIGAN CITY 6N           69 74  160/ 12/ 14   N/A           1
ST. JOSEPH                 69 75  160/ 12/ 14 1017.5R         1/ 2
$$

ILZ025>027-034>036-040-047-049-050-058-095>099-201300-
WEST-CENTRAL ILLINOIS

CITY           SKY/WX    TMP DP  RH WIND       PRES   REMARKS
QUINCY         CLOUDY    69  66  90 S3        29.98S
GALESBURG*     CLOUDY    65  63  93 SE5       30.00R
MACOMB*        CLOUDY    61  61  99 SE3       30.01S FOG
$$

ILZ028>032-037-038-041>044-048-051>054-059>061-201300-
CENTRAL ILLINOIS

CITY           SKY/WX    TMP DP  RH WIND       PRES   REMARKS
BLOOMINGTON    CLOUDY    67  65  93 SE6       30.03R
DECATUR        CLOUDY    66  64  93 CALM      30.01R
PEORIA         CLOUDY    70  65  84 CALM      30.00R
6HR MIN TEMP:  68; 6HR MAX TEMP:  71;

LACON*         PTCLDY    63  61  95 CALM      30.00R
LINCOLN*       CLOUDY    65  65  99 CALM      30.01R
SPRINGFIELD    CLOUDY    68  66  93 CALM      30.01R
6HR MIN TEMP:  66; 6HR MAX TEMP:  72;

TAYLORVILLE    NOT AVBL
$$

ILZ033-039-045-046-055>057-062-063-201300-
EAST-CENTRAL ILLINOIS

CITY           SKY/WX    TMP DP  RH WIND       PRES   REMARKS
CHAMPAIGN      CLEAR     67  65  93 E5        30.02S
RANTOUL*       CLEAR     67  65  92 CALM      30.03R
MATTOON        CLEAR     68  68 100 SE6       30.01S
PARIS*         CLEAR     65  65 100 SE5       30.04S
$$

ILZ079-100>102-201300-
SOUTHWEST ILLINOIS

CITY           SKY/WX    TMP DP  RH WIND       PRES   REMARKS
ALTON          CLOUDY    66  66 100 VRB5      30.00S
BELLEVILLE     CLEAR     69  67  94 CALM      30.01R
CAHOKIA*       CLEAR     70  67  90 CALM      29.99R
SPARTA*        CLEAR     70  69  98 CALM      30.01S
$$

ILZ064>066-069>071-074>076-080>082-084>086-088>090-092>094-201300-
SOUTH-CENTRAL ILLINOIS

CITY           SKY/WX    TMP DP  RH WIND       PRES   REMARKS
CARBONDALE     CLEAR     70  70 100 SE3       30.00F
6HR MIN TEMP:  69; 6HR MAX TEMP:  74;

CAIRO*         CLEAR     66  66 100 CALM      30.02S
EFFINGHAM*     CLEAR     67  67 100 CALM      30.04R
MARION         PTCLDY    73  72  94 SE6       30.02S
MT. VERNON       N/A     67  67 100 CALM      30.02R FOG
CENTRALIA*     PTCLDY    71  70  98 CALM      30.00S
SALEM*         CLOUDY    70  68  93 CALM      30.01S
METROPOLIS*    PTCLDY    67  67  98 CALM      30.04R FOG
$$

ILZ067-068-072-073-078-083-087-091-201300-
SOUTHEAST ILLINOIS

CITY           SKY/WX    TMP DP  RH WIND       PRES   REMARKS
LAWRENCEVILLE  CLOUDY    71  70  96 CALM      30.05R
FLORA*         PTCLDY    70  68  95 CALM      30.02S FOG
FAIRFIELD*     CLEAR     70  70 100 CALM      30.01S FOG
HARRISBURG*    PTCLDY    69  68  99 CALM      30.02S
ROBINSON*      CLOUDY    64  64 100 CALM      30.04S FOG
CARMI*         MOCLDY    72  72 100 SE3       30.03R
$$

ABBREVIATIONS USED IN REMARKS
   TC - TEMPERATURE IN CELSIUS
  WCI - WIND CHILL INDEX
   HX - HEAT INDEX
  VSB - VISIBILITY
$$




USA.gov is the U.S. government's official web portal to all federal, state and local government web resources and services.